User: anonymous   Login
Location: Unspecified
(0.0000°N, 0.0000°E)
Time: 01:05:09
(UTC+00:00)
Language:

STARLINK-34876 - Orbit

View from above orbital plane
View from above orbital plane
View from above satellite
View from above satellite

Ground track
Ground track

The orbit is defined by the following mean orbital elements,

1 65400U          26145.38537017 +.00000000 +00000-0 +15863-3 0 00006
2 65400  97.4518  16.8005 0002399  82.4604 277.6896 15.05655072    09
Epoch (UTC): 25 May 2026 09:14:55
Eccentricity: 0.0002399
inclination: 97.4518°
perigee height: 548 km
apogee height: 551 km
right ascension of ascending node: 16.8005°
argument of perigee: 82.4604°
revolutions per day: 15.05655072
mean anomaly at epoch: 277.6896°

The dashed part of the orbit path shows where the satellite is in the earth's shadow,  

DLR